| time (UTC) | temp F | wind direction | speed knots | gust knots | rain 1hr in | rain 24hr in | rain mn in | humidity % | barometer mb |
| 20260505125007 | 67 | 193 | 1.7 | 1.7 | 0.00 | 0.00 | 0.00 | 61 | 1010.8 |
| 20260505124503 | 67 | 205 | 0.0 | 0.9 | 0.00 | 0.00 | 0.00 | 61 | 1011.0 |
| 20260505124000 | 66 | 258 | 2.6 | 4.3 | 0.00 | 0.00 | 0.00 | 62 | 1010.9 |
| 20260505123456 | 65 | 148 | 0.0 | 0.9 | 0.00 | 0.00 | 0.00 | 65 | 1010.8 |
| 20260505122952 | 65 | 277 | 3.5 | 5.2 | 0.00 | 0.00 | 0.00 | 65 | 1010.8 |
| 20260505122450 | 65 | 205 | 0.9 | 0.9 | 0.00 | 0.00 | 0.00 | 66 | 1010.8 |
| 20260505121947 | 65 | 205 | 0.9 | 1.7 | 0.00 | 0.00 | 0.00 | 66 | 1010.9 |
| 20260505121443 | 64 | 193 | 0.0 | 0.0 | 0.00 | 0.00 | 0.00 | 66 | 1010.9 |
| 20260505120939 | 64 | 200 | 0.0 | 0.0 | 0.00 | 0.00 | 0.00 | 67 | 1010.7 |
| 20260505120436 | 64 | 175 | 0.0 | 0.0 | 0.00 | 0.00 | 0.00 | 69 | 1010.8 |
| 20260505115935 | 63 | 233 | 0.9 | 0.9 | 0.00 | 0.00 | 0.00 | 67 | 1010.7 |
| 20260505115432 | 64 | 210 | 0.9 | 0.9 | 0.00 | 0.00 | 0.00 | 67 | 1010.9 |
| 20260505114930 | 63 | 215 | 0.0 | 0.0 | 0.00 | 0.00 | 0.00 | 67 | 1010.9 |
| 20260505114426 | 64 | 212 | 0.0 | 0.0 | 0.00 | 0.00 | 0.00 | 67 | 1010.9 |
| 20260505113922 | 64 | 222 | 0.9 | 0.9 | 0.00 | 0.00 | 0.00 | 66 | 1010.5 |
| 20260505113419 | 63 | 211 | 0.0 | 0.0 | 0.00 | 0.00 | 0.00 | 68 | 1010.9 |
| 20260505112915 | 63 | 214 | 0.0 | 0.0 | 0.00 | 0.00 | 0.00 | 68 | 1010.8 |
| 20260505112413 | 62 | 199 | 1.7 | 1.7 | 0.00 | 0.00 | 0.00 | 68 | 1011.0 |
| 20260505111908 | 62 | 194 | 0.0 | 0.9 | 0.00 | 0.00 | 0.00 | 69 | 1011.0 |
| 20260505111403 | 62 | 195 | 0.0 | 0.0 | 0.00 | 0.00 | 0.00 | 70 | 1010.9 |
| 20260505110900 | 61 | 232 | 0.9 | 0.9 | 0.00 | 0.00 | 0.00 | 70 | 1010.8 |
| 20260505110357 | 61 | 214 | 0.0 | 0.0 | 0.00 | 0.00 | 0.00 | 71 | 1010.8 |
| 20260505101827 | 58 | 230 | 0.9 | 1.7 | 0.00 | 0.00 | 0.00 | 75 | 1010.9 |
| 20260505101322 | 58 | 222 | 0.9 | 0.9 | 0.00 | 0.00 | 0.00 | 77 | 1011.0 |
| 20260505100818 | 58 | 213 | 0.9 | 0.9 | 0.00 | 0.00 | 0.00 | 77 | 1011.0 |
| 20260505100315 | 58 | 186 | 0.0 | 0.0 | 0.00 | 0.00 | 0.00 | 76 | 1010.9 |
| 20260505095810 | 58 | 212 | 0.0 | 0.0 | 0.00 | 0.00 | 0.00 | 76 | 1010.7 |
| 20260505095308 | 59 | 201 | 0.0 | 0.0 | 0.00 | 0.00 | 0.00 | 76 | 1010.8 |
| 20260505094803 | 59 | 294 | 0.9 | 0.9 | 0.00 | 0.00 | 0.00 | 75 | 1010.5 |
| 20260505094256 | 59 | 218 | 0.0 | 0.0 | 0.00 | 0.00 | 0.00 | 75 | 1009.8 |
| 20260505093751 | 59 | 223 | 0.0 | 0.0 | 0.00 | 0.00 | 0.00 | 75 | 1010.1 |
| 20260505093249 | 58 | 190 | 0.9 | 1.7 | 0.00 | 0.00 | 0.00 | 75 | 1010.0 |
| 20260505092745 | 58 | 276 | 0.9 | 0.9 | 0.00 | 0.00 | 0.00 | 76 | 1009.7 |
| 20260505092244 | 59 | 189 | 0.9 | 1.7 | 0.00 | 0.00 | 0.00 | 75 | 1009.7 |
| 20260505091741 | 59 | 217 | 0.9 | 1.7 | 0.00 | 0.00 | 0.00 | 75 | 1009.8 |
| 20260505091239 | 58 | 193 | 0.9 | 1.7 | 0.00 | 0.00 | 0.00 | 75 | 1009.7 |
| 20260505090737 | 58 | 190 | 0.9 | 0.9 | 0.00 | 0.00 | 0.00 | 76 | 1009.8 |
| 20260505090235 | 58 | 275 | 0.9 | 1.7 | 0.00 | 0.00 | 0.00 | 76 | 1009.9 |
| 20260505085732 | 57 | 206 | 0.0 | 0.0 | 0.00 | 0.00 | 0.00 | 77 | 1009.7 |
| 20260505085230 | 57 | 209 | 0.0 | 0.0 | 0.00 | 0.00 | 0.00 | 78 | 1009.8 |
| 20260505084727 | 57 | 207 | 0.0 | 0.0 | 0.00 | 0.00 | 0.00 | 79 | 1010.0 |
| 20260505084226 | 55 | 257 | 1.7 | 2.6 | 0.00 | 0.00 | 0.00 | 82 | 1010.0 |
| 20260505083722 | 54 | 186 | 0.0 | 0.0 | 0.00 | 0.00 | 0.00 | 84 | 1009.9 |
| 20260505083219 | 53 | 210 | 0.0 | 0.0 | 0.00 | 0.00 | 0.00 | 86 | 1009.9 |
| 20260505082715 | 53 | 210 | 0.0 | 0.0 | 0.00 | 0.00 | 0.00 | 86 | 1010.4 |
| 20260505082213 | 52 | 205 | 0.0 | 0.0 | 0.00 | 0.00 | 0.00 | 86 | 1010.3 |
| 20260505081708 | 52 | 195 | 0.0 | 0.0 | 0.00 | 0.00 | 0.00 | 86 | 1010.0 |
| 20260505081206 | 52 | 198 | 0.0 | 0.0 | 0.00 | 0.00 | 0.00 | 86 | 1010.1 |
| 20260505080703 | 52 | 205 | 0.0 | 0.0 | 0.00 | 0.00 | 0.00 | 85 | 1009.9 |
| 20260505080158 | 52 | 206 | 0.0 | 0.0 | 0.00 | 0.00 | 0.00 | 85 | 1010.1 |
| 20260505075654 | 53 | 205 | 0.0 | 0.0 | 0.00 | 0.00 | 0.00 | 84 | 1009.8 |
| 20260505075151 | 53 | 206 | 0.0 | 0.0 | 0.00 | 0.00 | 0.00 | 84 | 1010.0 |
| 20260505074648 | 53 | 205 | 0.0 | 0.0 | 0.00 | 0.00 | 0.00 | 83 | 1009.9 |
| 20260505074145 | 53 | 205 | 0.0 | 0.0 | 0.00 | 0.00 | 0.00 | 83 | 1009.9 |
| 20260505073643 | 53 | 206 | 0.0 | 0.0 | 0.00 | 0.00 | 0.00 | 83 | 1010.1 |
| 20260505073141 | 53 | 206 | 0.0 | 0.0 | 0.00 | 0.00 | 0.00 | 82 | 1010.0 |
| 20260505072636 | 53 | 205 | 0.0 | 0.0 | 0.00 | 0.00 | 0.00 | 82 | 1009.5 |
| 20260505072133 | 54 | 206 | 0.0 | 0.0 | 0.00 | 0.00 | 0.00 | 81 | 1010.0 |
| 20260505071629 | 54 | 206 | 0.0 | 0.0 | 0.00 | 0.00 | 0.00 | 80 | 1009.7 |
| 20260505071127 | 54 | 206 | 0.0 | 0.0 | 0.00 | 0.00 | 0.00 | 80 | 1009.7 |
| 20260505070624 | 55 | 206 | 0.0 | 0.0 | 0.00 | 0.00 | 0.00 | 79 | 1009.6 |
| 20260505070120 | 55 | 206 | 0.0 | 0.0 | 0.00 | 0.00 | 0.00 | 78 | 1009.8 |
| 20260505065616 | 56 | 206 | 0.0 | 0.0 | 0.00 | 0.00 | 0.00 | 76 | 1009.8 |
| 20260505065113 | 56 | 205 | 0.0 | 0.0 | 0.00 | 0.00 | 0.00 | 76 | 1009.8 |
| 20260505064610 | 57 | 206 | 0.0 | 0.0 | 0.00 | 0.00 | 0.00 | 75 | 1009.9 |
| 20260505064108 | 57 | 223 | 0.0 | 0.0 | 0.00 | 0.00 | 0.00 | 74 | 1009.9 |
| 20260505063605 | 57 | 224 | 0.0 | 0.0 | 0.00 | 0.00 | 0.00 | 74 | 1009.8 |
| 20260505063101 | 57 | 213 | 0.0 | 0.0 | 0.00 | 0.00 | 0.00 | 74 | 1009.7 |
| 20260505062557 | 57 | 204 | 0.0 | 0.0 | 0.00 | 0.00 | 0.00 | 73 | 1009.6 |
| 20260505062055 | 58 | 210 | 0.9 | 0.9 | 0.00 | 0.00 | 0.00 | 72 | 1010.0 |
| 20260505061552 | 58 | 204 | 0.0 | 0.0 | 0.00 | 0.00 | 0.00 | 72 | 1009.8 |
| 20260505061050 | 58 | 215 | 0.0 | 0.0 | 0.00 | 0.00 | 0.00 | 71 | 1009.6 |
| 20260505060547 | 58 | 198 | 0.0 | 0.0 | 0.00 | 0.00 | 0.00 | 71 | 1009.7 |
| 20260505060044 | 58 | 199 | 0.9 | 1.7 | 0.00 | 0.00 | 0.00 | 71 | 1009.7 |
| 20260505055539 | 58 | 180 | 0.9 | 0.9 | 0.00 | 0.00 | 0.00 | 71 | 1009.9 |
| 20260505055036 | 58 | 189 | 0.9 | 0.9 | 0.00 | 0.00 | 0.00 | 71 | 1009.8 |
| 20260505054533 | 58 | 200 | 0.0 | 0.9 | 0.00 | 0.00 | 0.00 | 72 | 1009.7 |
| 20260505054032 | 57 | 198 | 0.9 | 0.9 | 0.00 | 0.00 | 0.00 | 72 | 1009.8 |
| 20260505053528 | 57 | 194 | 0.0 | 0.9 | 0.00 | 0.00 | 0.00 | 72 | 1009.7 |
| 20260505053025 | 58 | 212 | 0.0 | 0.0 | 0.00 | 0.00 | 0.00 | 71 | 1009.9 |
| 20260505052522 | 58 | 208 | 0.0 | 0.0 | 0.00 | 0.00 | 0.00 | 70 | 1010.0 |
| 20260505052020 | 58 | 207 | 0.0 | 0.0 | 0.00 | 0.00 | 0.00 | 70 | 1010.1 |
| 20260505051516 | 58 | 195 | 0.0 | 0.0 | 0.00 | 0.00 | 0.00 | 70 | 1010.2 |
| 20260505051014 | 58 | 190 | 0.0 | 0.0 | 0.00 | 0.00 | 0.00 | 70 | 1009.9 |
| 20260505050512 | 58 | 208 | 0.0 | 0.0 | 0.00 | 0.00 | 0.00 | 69 | 1010.2 |
| 20260505041434 | 60 | 195 | 0.9 | 0.9 | 0.00 | 0.00 | 0.00 | 66 | 1010.1 |
| 20260505040931 | 60 | 207 | 0.9 | 0.9 | 0.00 | 0.00 | 0.00 | 65 | 1010.2 |
| 20260505040429 | 60 | 221 | 0.9 | 0.9 | 0.00 | 0.00 | 0.00 | 65 | 1010.3 |
| 20260505035925 | 60 | 204 | 0.9 | 0.9 | 0.00 | 0.00 | 0.00 | 65 | 1010.2 |
| 20260505035421 | 60 | 184 | 0.9 | 1.7 | 0.00 | 0.00 | 0.00 | 64 | 1010.2 |
| 20260505034919 | 60 | 214 | 0.9 | 1.7 | 0.00 | 0.00 | 0.00 | 64 | 1010.3 |
| 20260505034415 | 60 | 212 | 0.0 | 0.9 | 0.00 | 0.00 | 0.00 | 63 | 1010.1 |
| 20260505033912 | 60 | 190 | 0.9 | 1.7 | 0.00 | 0.00 | 0.00 | 63 | 1010.3 |
| 20260505033409 | 60 | 211 | 0.0 | 0.0 | 0.00 | 0.00 | 0.00 | 63 | 1010.3 |
| 20260505032907 | 60 | 213 | 0.0 | 0.9 | 0.00 | 0.00 | 0.00 | 62 | 1010.1 |
| 20260505032403 | 60 | 242 | 0.9 | 1.7 | 0.00 | 0.00 | 0.00 | 62 | 1010.4 |
| 20260505031900 | 61 | 191 | 1.7 | 2.6 | 0.00 | 0.00 | 0.00 | 61 | 1010.3 |
| 20260505031357 | 61 | 200 | 1.7 | 1.7 | 0.00 | 0.00 | 0.00 | 61 | 1010.4 |
| 20260505030854 | 61 | 191 | 1.7 | 1.7 | 0.00 | 0.00 | 0.00 | 60 | 1010.3 |
| 20260505030350 | 61 | 167 | 1.7 | 1.7 | 0.00 | 0.00 | 0.00 | 59 | 1010.4 |
| 20260505025845 | 61 | 194 | 1.7 | 2.6 | 0.00 | 0.00 | 0.00 | 59 | 1010.3 |
| 20260505025343 | 61 | 195 | 1.7 | 1.7 | 0.00 | 0.00 | 0.00 | 58 | 1010.4 |
| 20260505024842 | 61 | 205 | 0.0 | 0.9 | 0.00 | 0.00 | 0.00 | 58 | 1010.3 |
| 20260505024339 | 61 | 188 | 0.0 | 0.9 | 0.00 | 0.00 | 0.00 | 57 | 1010.4 |
| 20260505023836 | 62 | 203 | 1.7 | 1.7 | 0.00 | 0.00 | 0.00 | 56 | 1010.6 |
| 20260505023333 | 62 | 195 | 1.7 | 1.7 | 0.00 | 0.00 | 0.00 | 55 | 1010.5 |
| 20260505022830 | 62 | 190 | 1.7 | 1.7 | 0.00 | 0.00 | 0.00 | 55 | 1010.5 |
| 20260505022327 | 62 | 200 | 0.9 | 0.9 | 0.00 | 0.00 | 0.00 | 55 | 1010.4 |
| 20260505021825 | 62 | 197 | 0.9 | 0.9 | 0.00 | 0.00 | 0.00 | 54 | 1010.5 |
| 20260505021321 | 63 | 201 | 0.0 | 0.9 | 0.00 | 0.00 | 0.00 | 53 | 1010.8 |
| 20260505020817 | 63 | 133 | 0.9 | 0.9 | 0.00 | 0.00 | 0.00 | 52 | 1010.7 |
| 20260505020313 | 63 | 186 | 0.9 | 0.9 | 0.00 | 0.00 | 0.00 | 52 | 1010.6 |
| 20260505015810 | 63 | 203 | 0.9 | 0.9 | 0.00 | 0.00 | 0.00 | 51 | 1010.6 |
| 20260505015307 | 63 | 243 | 0.9 | 1.7 | 0.00 | 0.00 | 0.00 | 50 | 1010.6 |
| 20260505014804 | 64 | 176 | 1.7 | 2.6 | 0.00 | 0.00 | 0.00 | 49 | 1010.5 |
| 20260505014301 | 64 | 196 | 0.9 | 0.9 | 0.00 | 0.00 | 0.00 | 47 | 1010.4 |
| 20260505013757 | 64 | 207 | 1.7 | 1.7 | 0.00 | 0.00 | 0.00 | 46 | 1010.5 |
| 20260505013255 | 64 | 199 | 0.9 | 0.9 | 0.00 | 0.00 | 0.00 | 46 | 1010.5 |
| 20260505012753 | 64 | 198 | 0.9 | 0.9 | 0.00 | 0.00 | 0.00 | 46 | 1010.3 |
| 20260505012250 | 64 | 203 | 0.9 | 0.9 | 0.00 | 0.00 | 0.00 | 46 | 1010.1 |
| 20260505011745 | 64 | 216 | 0.0 | 0.9 | 0.00 | 0.00 | 0.00 | 45 | 1010.1 |
| 20260505011243 | 65 | 196 | 0.0 | 0.0 | 0.00 | 0.00 | 0.00 | 45 | 1009.9 |
| 20260505010738 | 65 | 191 | 0.0 | 0.9 | 0.00 | 0.00 | 0.00 | 44 | 1009.9 |
| 20260505010235 | 65 | 178 | 1.7 | 1.7 | 0.00 | 0.00 | 0.00 | 43 | 1009.8 |
| 20260505005731 | 65 | 200 | 0.0 | 0.0 | 0.00 | 0.00 | 0.00 | 43 | 1009.8 |
| 20260505005228 | 65 | 208 | 0.0 | 0.9 | 0.00 | 0.00 | 0.00 | 44 | 1009.9 |
| 20260505004726 | 66 | 195 | 0.0 | 0.0 | 0.00 | 0.00 | 0.00 | 43 | 1009.9 |
| 20260505004222 | 66 | 214 | 0.0 | 0.0 | 0.00 | 0.00 | 0.00 | 43 | 1009.9 |
| 20260505003719 | 65 | 202 | 0.0 | 0.0 | 0.00 | 0.00 | 0.00 | 43 | 1009.8 |
| 20260505003217 | 66 | 215 | 0.0 | 0.0 | 0.00 | 0.00 | 0.00 | 43 | 1009.6 |
| 20260505002713 | 66 | 203 | 0.0 | 0.0 | 0.00 | 0.00 | 0.00 | 42 | 1009.5 |
| 20260505002211 | 66 | 190 | 1.7 | 1.7 | 0.00 | 0.00 | 0.00 | 42 | 1009.6 |
| 20260505001708 | 66 | 231 | 0.9 | 0.9 | 0.00 | 0.00 | 0.00 | 42 | 1009.5 |
| 20260505001205 | 67 | 200 | 0.0 | 0.9 | 0.00 | 0.00 | 0.00 | 41 | 1009.5 |
| 20260505000702 | 67 | 211 | 0.9 | 0.9 | 0.00 | 0.00 | 0.00 | 41 | 1009.3 |
| 20260505000200 | 67 | 212 | 0.0 | 0.0 | 0.00 | 0.00 | 0.00 | 40 | 1009.2 |
| 20260504235656 | 68 | 232 | 0.9 | 0.9 | 0.00 | 0.00 | 0.00 | 39 | 1009.2 |
| 20260504235152 | 68 | 196 | 0.0 | 0.0 | 0.00 | 0.00 | 0.00 | 40 | 1009.1 |
| 20260504234650 | 68 | 210 | 0.0 | 0.0 | 0.00 | 0.00 | 0.00 | 39 | 1009.1 |
| 20260504234147 | 69 | 221 | 0.0 | 0.0 | 0.00 | 0.00 | 0.00 | 38 | 1009.0 |
| 20260504233643 | 69 | 223 | 0.0 | 0.9 | 0.00 | 0.00 | 0.00 | 38 | 1009.1 |
| 20260504233139 | 69 | 216 | 0.0 | 0.0 | 0.00 | 0.00 | 0.00 | 37 | 1009.0 |
| 20260504232637 | 69 | 207 | 0.9 | 0.9 | 0.00 | 0.00 | 0.00 | 37 | 1008.9 |
| 20260504232133 | 70 | 178 | 0.9 | 0.9 | 0.00 | 0.00 | 0.00 | 36 | 1009.0 |
| 20260504231630 | 70 | 208 | 0.9 | 0.9 | 0.00 | 0.00 | 0.00 | 36 | 1008.7 |
| 20260504231127 | 70 | 199 | 0.9 | 0.9 | 0.00 | 0.00 | 0.00 | 36 | 1008.9 |
| 20260504230623 | 70 | 225 | 0.9 | 0.9 | 0.00 | 0.00 | 0.00 | 36 | 1009.0 |
| 20260504230122 | 71 | 262 | 1.7 | 1.7 | 0.00 | 0.00 | 0.00 | 35 | 1008.7 |
| 20260504225619 | 71 | 284 | 2.6 | 2.6 | 0.00 | 0.00 | 0.00 | 36 | 1008.6 |
| 20260504225115 | 71 | 272 | 2.6 | 2.6 | 0.00 | 0.00 | 0.00 | 36 | 1008.6 |
| 20260504224612 | 71 | 212 | 0.0 | 0.0 | 0.00 | 0.00 | 0.00 | 35 | 1008.8 |
| 20260504224109 | 71 | 178 | 2.6 | 4.3 | 0.00 | 0.00 | 0.00 | 35 | 1008.6 |
| 20260504223606 | 71 | 287 | 1.7 | 2.6 | 0.00 | 0.00 | 0.00 | 35 | 1008.7 |
| 20260504223102 | 72 | 252 | 2.6 | 4.3 | 0.00 | 0.00 | 0.00 | 34 | 1008.7 |
| 20260504222559 | 72 | 138 | 1.7 | 2.6 | 0.00 | 0.00 | 0.00 | 34 | 1008.8 |
| 20260504222056 | 72 | 174 | 1.7 | 1.7 | 0.00 | 0.00 | 0.00 | 35 | 1008.9 |
| 20260504221553 | 72 | 215 | 2.6 | 2.6 | 0.00 | 0.00 | 0.00 | 35 | 1008.7 |
| 20260504221050 | 72 | 306 | 2.6 | 4.3 | 0.00 | 0.00 | 0.00 | 34 | 1008.8 |
| 20260504220546 | 73 | 216 | 0.0 | 0.0 | 0.00 | 0.00 | 0.00 | 34 | 1008.7 |
| 20260504220044 | 73 | 164 | 6.1 | 7.8 | 0.00 | 0.00 | 0.00 | 33 | 1008.9 |
| 20260504215540 | 73 | 271 | 3.5 | 4.3 | 0.00 | 0.00 | 0.00 | 33 | 1009.0 |
| 20260504215038 | 73 | 213 | 2.6 | 2.6 | 0.00 | 0.00 | 0.00 | 34 | 1008.8 |
| 20260504214533 | 73 | 308 | 2.6 | 4.3 | 0.00 | 0.00 | 0.00 | 33 | 1009.0 |
| 20260504214030 | 73 | 147 | 2.6 | 2.6 | 0.00 | 0.00 | 0.00 | 33 | 1009.0 |
| 20260504213526 | 73 | 229 | 1.7 | 1.7 | 0.00 | 0.00 | 0.00 | 32 | 1009.0 |
| 20260504213024 | 73 | 220 | 0.9 | 1.7 | 0.00 | 0.00 | 0.00 | 33 | 1009.0 |
| 20260504212519 | 73 | 182 | 0.0 | 0.9 | 0.00 | 0.00 | 0.00 | 34 | 1009.0 |
| 20260504212017 | 74 | 221 | 1.7 | 2.6 | 0.00 | 0.00 | 0.00 | 32 | 1009.1 |
| 20260504211514 | 73 | 217 | 2.6 | 2.6 | 0.00 | 0.00 | 0.00 | 33 | 1009.0 |
| 20260504211011 | 74 | 204 | 2.6 | 4.3 | 0.00 | 0.00 | 0.00 | 34 | 1009.2 |
| 20260504210508 | 73 | 211 | 0.9 | 0.9 | 0.00 | 0.00 | 0.00 | 33 | 1009.0 |
| 20260504210005 | 73 | 198 | 1.7 | 2.6 | 0.00 | 0.00 | 0.00 | 32 | 1009.2 |
| 20260504205503 | 74 | 225 | 2.6 | 2.6 | 0.00 | 0.00 | 0.00 | 33 | 1009.2 |
| 20260504205000 | 72 | 199 | 0.9 | 0.9 | 0.00 | 0.00 | 0.00 | 31 | 1009.1 |
| 20260504204458 | 73 | 209 | 3.5 | 5.2 | 0.00 | 0.00 | 0.00 | 32 | 1009.2 |
| 20260504203957 | 74 | 260 | 2.6 | 4.3 | 0.00 | 0.00 | 0.00 | 33 | 1009.0 |
| 20260504203455 | 73 | 204 | 0.0 | 0.0 | 0.00 | 0.00 | 0.00 | 33 | 1009.1 |
| 20260504202950 | 74 | 354 | 2.6 | 5.2 | 0.00 | 0.00 | 0.00 | 32 | 1009.0 |
| 20260504202447 | 75 | 280 | 6.1 | 7.0 | 0.00 | 0.00 | 0.00 | 30 | 1009.1 |
| 20260504201944 | 75 | 273 | 3.5 | 4.3 | 0.00 | 0.00 | 0.00 | 31 | 1009.2 |
| 20260504201441 | 75 | 298 | 1.7 | 1.7 | 0.00 | 0.00 | 0.00 | 31 | 1009.1 |
| 20260504200939 | 74 | 175 | 0.9 | 1.7 | 0.00 | 0.00 | 0.00 | 33 | 1009.3 |
| 20260504200435 | 75 | 133 | 1.7 | 2.6 | 0.00 | 0.00 | 0.00 | 32 | 1009.3 |
| 20260504195932 | 75 | 30 | 2.6 | 2.6 | 0.00 | 0.00 | 0.00 | 31 | 1009.5 |
| 20260504195428 | 75 | 255 | 3.5 | 4.3 | 0.00 | 0.00 | 0.00 | 31 | 1009.3 |
| 20260504194924 | 74 | 220 | 3.5 | 5.2 | 0.00 | 0.00 | 0.00 | 33 | 1009.5 |
| 20260504194420 | 74 | 278 | 3.5 | 5.2 | 0.00 | 0.00 | 0.00 | 33 | 1009.5 |
| 20260504193916 | 74 | 284 | 2.6 | 2.6 | 0.00 | 0.00 | 0.00 | 33 | 1009.3 |
| 20260504193414 | 74 | 258 | 2.6 | 2.6 | 0.00 | 0.00 | 0.00 | 33 | 1009.4 |
| 20260504192913 | 74 | 289 | 1.7 | 1.7 | 0.00 | 0.00 | 0.00 | 32 | 1009.4 |
| 20260504192409 | 73 | 145 | 3.5 | 6.1 | 0.00 | 0.00 | 0.00 | 32 | 1009.5 |
| 20260504191909 | 74 | 286 | 3.5 | 4.3 | 0.00 | 0.00 | 0.00 | 33 | 1009.4 |
| 20260504191406 | 73 | 229 | 1.7 | 2.6 | 0.00 | 0.00 | 0.00 | 34 | 1009.6 |
| 20260504190901 | 73 | 278 | 3.5 | 4.3 | 0.00 | 0.00 | 0.00 | 32 | 1009.9 |
| 20260504190357 | 73 | 265 | 2.6 | 4.3 | 0.00 | 0.00 | 0.00 | 35 | 1010.1 |
| 20260504185854 | 73 | 82 | 4.3 | 6.1 | 0.00 | 0.00 | 0.00 | 34 | 1009.9 |
| 20260504185351 | 73 | 263 | 3.5 | 4.3 | 0.00 | 0.00 | 0.00 | 33 | 1010.0 |
| 20260504184847 | 73 | 148 | 0.9 | 0.9 | 0.00 | 0.00 | 0.00 | 33 | 1009.7 |
| 20260504184343 | 74 | 203 | 0.0 | 0.9 | 0.00 | 0.00 | 0.00 | 33 | 1010.4 |
| 20260504183839 | 73 | 231 | 2.6 | 4.3 | 0.00 | 0.00 | 0.00 | 36 | 1010.2 |
| 20260504183337 | 72 | 271 | 3.5 | 5.2 | 0.00 | 0.00 | 0.00 | 34 | 1010.4 |
| 20260504182834 | 73 | 263 | 0.9 | 2.6 | 0.00 | 0.00 | 0.00 | 36 | 1010.3 |
| 20260504182331 | 72 | 179 | 1.7 | 1.7 | 0.00 | 0.00 | 0.00 | 36 | 1010.5 |
| 20260504181828 | 72 | 46 | 3.5 | 6.1 | 0.00 | 0.00 | 0.00 | 33 | 1010.4 |
| 20260504181325 | 72 | 259 | 0.9 | 0.9 | 0.00 | 0.00 | 0.00 | 35 | 1010.5 |
| 20260504180824 | 73 | 279 | 7.0 | 11.3 | 0.00 | 0.00 | 0.00 | 33 | 1010.7 |
| 20260504180322 | 72 | 249 | 1.7 | 2.6 | 0.00 | 0.00 | 0.00 | 35 | 1010.7 |
| 20260504175820 | 72 | 289 | 1.7 | 2.6 | 0.00 | 0.00 | 0.00 | 36 | 1010.8 |
| 20260504175317 | 72 | 276 | 0.9 | 1.7 | 0.00 | 0.00 | 0.00 | 37 | 1010.9 |
| 20260504174815 | 72 | 293 | 3.5 | 5.2 | 0.00 | 0.00 | 0.00 | 35 | 1010.8 |
| 20260504174312 | 72 | 56 | 0.9 | 1.7 | 0.00 | 0.00 | 0.00 | 37 | 1011.3 |
| 20260504173809 | 71 | 228 | 1.7 | 2.6 | 0.00 | 0.00 | 0.00 | 37 | 1011.2 |
| 20260504173305 | 70 | 268 | 0.9 | 1.7 | 0.00 | 0.00 | 0.00 | 37 | 1010.9 |
| 20260504172803 | 71 | 236 | 2.6 | 4.3 | 0.00 | 0.00 | 0.00 | 37 | 1010.9 |
| 20260504172259 | 71 | 258 | 1.7 | 2.6 | 0.00 | 0.00 | 0.00 | 35 | 1011.0 |
| 20260504171755 | 70 | 247 | 2.6 | 4.3 | 0.00 | 0.00 | 0.00 | 38 | 1011.3 |
| 20260504171252 | 70 | 253 | 4.3 | 5.2 | 0.00 | 0.00 | 0.00 | 35 | 1011.3 |
| 20260504170749 | 70 | 252 | 1.7 | 1.7 | 0.00 | 0.00 | 0.00 | 36 | 1011.3 |
| 20260504170246 | 70 | 131 | 2.6 | 2.6 | 0.00 | 0.00 | 0.00 | 37 | 1011.2 |
| 20260504160205 | 68 | 216 | 1.7 | 2.6 | 0.00 | 0.00 | 0.00 | 39 | 1012.3 |
| 20260504151133 | 66 | 256 | 0.9 | 0.9 | 0.00 | 0.00 | 0.00 | 40 | 1012.8 |
| 20260504150630 | 66 | 262 | 3.5 | 5.2 | 0.00 | 0.00 | 0.00 | 39 | 1012.7 |
| 20260504150127 | 65 | 306 | 2.6 | 4.3 | 0.00 | 0.00 | 0.00 | 42 | 1012.9 |
| 20260504141055 | 63 | 259 | 3.5 | 4.3 | 0.00 | 0.00 | 0.00 | 46 | 1012.9 |
| 20260504140552 | 63 | 158 | 0.9 | 1.7 | 0.00 | 0.00 | 0.00 | 47 | 1012.9 |